Weather History for MWCR - December, 2011

Change the Weather History Date:

Thursday, December 1, 2011

  Actual Average Record
Temperature  
Mean Temperature 77 °F -  
Max Temperature 81 °F 82 °F 87 °F (1997)
Min Temperature 73 °F 74 °F 75 °F (1999)
Cooling Degree Days 12    
Growing Degree Days 27 (Base 50)    
Moisture  
Dew Point 66 °F    
Average Humidity 65    
Maximum Humidity 85    
Minimum Humidity 48    
Precipitation  
Precipitation 0.00 in - - ()
Sea Level Pressure  
Sea Level Pressure 30.03 in    
Wind  
Wind Speed 10 mph ()    
Max Wind Speed 15 mph    
Max Gust Speed -    
Visibility 6.2 miles    
Events      
Averages and records for this station are not official NWS values.
T = Trace of Precipitation, MM = Missing Value Source: Averaged Metar Reports

Daily Weather History Graph

Daily Weather History Graph

Search for Another Location

Airport or City:

Trip Planner

Search our weather history database for the weather conditions in past years. The results will help you decide how hot, cold, wet, or windy it might be!

Date:

Astronomy

Dec. 01, 2011 Rise Set
Actual Time 6:42 AM EST 5:46 PM EST
Civil Twilight 6:19 AM EST 6:09 PM EST
Nautical Twilight 5:52 AM EST 6:36 PM EST
Astronomical Twilight 5:25 AM EST 7:03 PM EST
Moon 11:59 AM EST (12/1) No Moon Set
Length of Visible Light 11h 50m
Length of Day
11h 03m
Waxing Crescent, 43% of the Moon is Illuminated
Dec 1
Waxing Crescent
Dec 2
First Quarter
Dec 10
Full
Dec 17
Last Quarter
Dec 24
New

Hourly Weather History & Observations

Time (EST) Temp. Heat Index Dew Point Humidity Pressure Visibility Wind Dir Wind Speed Gust Speed Precip Events Conditions
6:00 AM 75.2 °F - 66.2 °F 73% 30.01 in 6.2 mi North 9.2 mph - N/A   Mostly Cloudy
7:00 AM 76 °F - 65 °F 60% 30.03 in 6 mi North 10.4 mph - -   Mostly Cloudy
7:00 AM 75.2 °F - 64.4 °F 69% 30.01 in 6.2 mi North 10.4 mph - N/A   Mostly Cloudy
8:00 AM 77.0 °F - 64.4 °F 65% 30.04 in 6.2 mi North 11.5 mph - N/A   Partly Cloudy
9:00 AM 78.8 °F - 66.2 °F 65% 30.04 in 6.2 mi North 11.5 mph - N/A   Partly Cloudy
10:00 AM 80.6 °F 82.3 °F 64.4 °F 58% 30.06 in 6.2 mi NNE 11.5 mph - N/A   Partly Cloudy
11:00 AM 80.6 °F 82.3 °F 64.4 °F 58% 30.04 in 6.2 mi North 12.7 mph - N/A   Partly Cloudy
1:00 PM 81 °F - 65 °F 48% 30.03 in 6 mi NNE 12.7 mph - -   Scattered Clouds
1:00 PM 80.6 °F 82.3 °F 64.4 °F 58% 30.01 in 6.2 mi NNE 12.7 mph - N/A   Partly Cloudy
2:00 PM 80.6 °F 82.3 °F 64.4 °F 58% 30.01 in 6.2 mi NNE 13.8 mph - N/A   Partly Cloudy
2:57 PM 80.6 °F 82.3 °F 64.4 °F 58% 30.01 in 6.2 mi NNE 11.5 mph - N/A   Partly Cloudy
3:51 PM 78.8 °F - 64.4 °F 61% 30.01 in 6.2 mi NNE 11.5 mph - N/A   Partly Cloudy
4:57 PM 77.0 °F - 64.4 °F 65% 30.01 in 6.2 mi NNE 12.7 mph - N/A   Partly Cloudy
5:51 PM 77.0 °F - 64.4 °F 65% 30.01 in 6.2 mi NNE 15.0 mph - N/A   Partly Cloudy
6:53 PM 77.0 °F - 68.0 °F 74% 30.01 in 6.2 mi NE 11.5 mph - N/A   Partly Cloudy
7:00 PM 77 °F - 73 °F 85% 30.03 in 6 mi NE 11.5 mph - -   Scattered Clouds
7:52 PM 77.0 °F - 66.2 °F 69% 30.04 in 6.2 mi NE 12.7 mph - N/A   Scattered Clouds
9:00 PM 77.0 °F - 68.0 °F 74% 30.06 in 6.2 mi NE 12.7 mph - N/A   Partly Cloudy
10:00 PM 77.0 °F - 64.4 °F 65% 30.06 in 6.2 mi NE 15.0 mph - N/A   Partly Cloudy